ASTRO-H (HITOMI)

Last updated on Sat Sep 05 2026 00:02:09 GMT+0000 (Coordinated Universal Time)

1 41337U 16012A 26247.52042751 .00001535 00000+0 84404-4 0 9992 2 41337 30.9986 281.7018 0009500 331.2593 28.7521 15.10823684579297
UTC large
Height (km)
Speed (km/s)
/
Latitude / Longitude
Inclination (degrees)
Orbital Period (minutes)
Azimuth
Elevation
Range (km)
Doppler Factor

Next 0 passes for location: London (51.5072 / 0.1276)

No passes found over London.
ASTRO-H (HITOMI)